TimeEDT,TemperatureF,Dew PointF,Humidity,Sea Level PressureIn,VisibilityMPH,Wind Direction,Wind SpeedMPH,Gust SpeedMPH,PrecipitationIn,Events,Conditions,WindDirDegrees,DateUTC
12:07 AM,53.6,51.8,94,29.09,2.5,NNE,34.5,52.9,0.02,Rain,Rain,30,2012-10-30 04:07:00
12:19 AM,55.4,51.8,88,29.09,4.0,NNE,33.4,52.9,0.04,Rain,Rain,30,2012-10-30 04:19:00
12:32 AM,53.6,51.8,94,29.09,2.0,NE,34.5,51.8,0.04,Rain,Rain,40,2012-10-30 04:32:00
12:54 AM,55.0,51.1,86,29.11,5.0,NE,29.9,52.9,0.09,Rain,Light Rain,40,2012-10-30 04:54:00
1:10 AM,53.6,51.8,94,29.09,2.5,NE,29.9,50.6,0.04,Rain,Heavy Rain,50,2012-10-30 05:10:00
1:54 AM,55.9,52.0,87,29.09,10.0,NE,35.7,51.8,0.10,,Overcast,50,2012-10-30 05:54:00
2:20 AM,57.2,51.8,82,29.08,10.0,NE,38.0,47.2,N/A,,Overcast,50,2012-10-30 06:20:00
2:54 AM,57.2,53.6,88,29.08,10.0,NE,33.4,48.3,N/A,Rain,Light Rain,50,2012-10-30 06:54:00
3:27 AM,57.2,53.6,88,29.08,10.0,NE,29.9,47.2,0.00,,Overcast,50,2012-10-30 07:27:00
3:54 AM,57.9,52.0,81,29.09,10.0,ENE,26.5,40.3,0.00,,Overcast,60,2012-10-30 07:54:00
4:54 AM,57.0,53.1,87,29.09,10.0,NE,23.0,34.5,0.00,,Overcast,50,2012-10-30 08:54:00
5:29 AM,57.2,53.6,88,29.11,10.0,ENE,21.9,31.1,0.00,,Overcast,60,2012-10-30 09:29:00
5:54 AM,57.0,53.1,87,29.12,10.0,ENE,21.9,32.2,0.00,,Mostly Cloudy,60,2012-10-30 09:54:00
6:07 AM,55.4,53.6,94,29.12,10.0,ENE,16.1,27.6,N/A,,Mostly Cloudy,70,2012-10-30 10:07:00
6:54 AM,55.9,52.0,87,29.14,10.0,ENE,16.1,23.0,N/A,,Mostly Cloudy,70,2012-10-30 10:54:00
7:54 AM,55.9,50.0,80,29.16,10.0,NE,13.8,-,0.00,Rain,Light Rain,50,2012-10-30 11:54:00
8:54 AM,55.9,50.0,80,29.19,10.0,East,18.4,28.8,0.02,,Overcast,80,2012-10-30 12:54:00
9:54 AM,55.9,45.0,67,29.22,10.0,ESE,11.5,21.9,N/A,,Overcast,110,2012-10-30 13:54:00
10:54 AM,55.0,45.0,69,29.23,10.0,ESE,17.3,23.0,0.00,Rain,Light Rain,110,2012-10-30 14:54:00
11:54 AM,55.0,45.0,69,29.25,9.0,ESE,13.8,20.7,0.00,Rain,Light Rain,120,2012-10-30 15:54:00
12:54 PM,52.0,46.9,83,29.27,10.0,East,8.1,-,0.00,Rain,Light Rain,100,2012-10-30 16:54:00
1:54 PM,54.0,45.0,72,29.26,10.0,East,8.1,-,0.00,,Overcast,100,2012-10-30 17:54:00
2:54 PM,50.0,46.0,86,29.29,10.0,East,11.5,-,0.04,Rain,Light Rain,100,2012-10-30 18:54:00
3:54 PM,50.0,44.1,80,29.29,10.0,East,16.1,23.0,0.00,,Overcast,100,2012-10-30 19:54:00
4:54 PM,50.0,42.1,74,29.31,10.0,East,16.1,23.0,N/A,,Overcast,100,2012-10-30 20:54:00
5:54 PM,48.9,42.1,77,29.35,10.0,ESE,13.8,-,0.00,Rain,Light Rain,110,2012-10-30 21:54:00
5:59 PM,48.2,42.8,82,29.34,10.0,ESE,13.8,-,0.00,Rain,Light Rain,110,2012-10-30 21:59:00
6:16 PM,48.2,42.8,82,29.35,10.0,SE,10.4,-,0.00,Rain,Light Rain,140,2012-10-30 22:16:00
6:54 PM,48.0,41.0,77,29.37,10.0,SE,9.2,-,0.00,,Overcast,140,2012-10-30 22:54:00
7:54 PM,46.9,41.0,80,29.39,10.0,SE,10.4,-,0.00,Rain,Light Rain,130,2012-10-30 23:54:00
8:54 PM,46.0,39.9,79,29.40,10.0,SE,6.9,-,0.00,,Overcast,130,2012-10-31 00:54:00
9:54 PM,45.0,39.9,82,29.41,10.0,ESE,6.9,-,N/A,,Mostly Cloudy,110,2012-10-31 01:54:00
10:54 PM,44.1,39.0,82,29.42,10.0,ESE,8.1,-,N/A,,Mostly Cloudy,120,2012-10-31 02:54:00
11:54 PM,44.1,39.0,82,29.42,10.0,ESE,5.8,-,N/A,,Mostly Cloudy,110,2012-10-31 03:54:00